Mackall AAF, NC

6:44 AM EDT on May 30, 2017 (GMT -0400)
Mackall Army Air Field

Weather History for KHFF - October, 2013

Change the Weather History Date:

Saturday, October 26, 2013

  Actual Average Record
Temperature  
Mean Temperature 42 °F -  
Max Temperature 59 °F 68 °F 82 °F (2014)
Min Temperature 26 °F 46 °F 26 °F (2013)
Degree Days  
Heating Degree Days 22    
Moisture  
Dew Point 31 °F    
Average Humidity 69    
Maximum Humidity 97    
Minimum Humidity 30    
Precipitation  
Precipitation 0.00 in - - ()
Sea Level Pressure  
Sea Level Pressure 30.27 in    
Wind  
Wind Speed 4 mph (WSW)    
Max Wind Speed 12 mph    
Max Gust Speed 17 mph    
Visibility 12 miles    
Events      
Averages and records for this station are not official NWS values.
T = Trace of Precipitation, MM = Missing Value Source: NWS Daily Summary

Daily Weather History Graph

Daily Weather History Graph

Search for Another Location

Airport or City:

Trip Planner

Search our weather history database for the weather conditions in past years. The results will help you decide how hot, cold, wet, or windy it might be!

Date:

Astronomy

Oct. 26, 2013 Rise Set
Actual Time 7:33 AM EDT 6:29 PM EDT
Civil Twilight 7:07 AM EDT 6:55 PM EDT
Nautical Twilight 6:38 AM EDT 7:25 PM EDT
Astronomical Twilight 6:08 AM EDT 7:54 PM EDT
Moon No Moon Rise 1:46 PM EDT (10/26)
Length of Visible Light 11h 47m
Length of Day
10h 55m
Waning Gibbous, 53% of the Moon is Illuminated
Oct 26
Waning Gibbous
Oct 26
Last Quarter
Nov 3
New
Nov 10
First Quarter
Nov 17
Full

Hourly Weather History & Observations

Time (EDT) Temp. Windchill Dew Point Humidity Pressure Visibility Wind Dir Wind Speed Gust Speed Precip Events Conditions
12:56 AM 32.7 °F - 31.1 °F 94% 30.39 in 12.0 mi NNW 2.3 mph - N/A   Clear
1:56 AM 31.6 °F - 30.0 °F 94% 30.38 in 12.0 mi WNW 2.3 mph - N/A   Clear
2:56 AM 29.8 °F 26.3 °F 28.9 °F 96% 30.36 in 12.0 mi NW 3.5 mph - N/A   Clear
3:56 AM 30.0 °F - 28.8 °F 95% 30.36 in 12.0 mi Variable 1.2 mph - N/A   Clear
4:56 AM 28.4 °F - 27.7 °F 97% 30.35 in 12.0 mi NNW 2.3 mph - N/A   Clear
5:56 AM 27.1 °F - 26.2 °F 96% 30.35 in 12.0 mi WNW 1.2 mph - N/A   Clear
6:56 AM 26.8 °F - 25.9 °F 96% 30.35 in 12.0 mi South 1.2 mph - N/A   Clear
7:56 AM 27.1 °F - 26.4 °F 97% 30.36 in 12.0 mi Calm Calm - N/A   Clear
8:56 AM 34.2 °F - 31.3 °F 89% 30.37 in 12.0 mi Variable 1.2 mph - N/A   Clear
9:56 AM 41.5 °F - 33.4 °F 73% 30.36 in 12.0 mi NNW 2.3 mph - N/A   Clear
10:56 AM 48.9 °F - 30.0 °F 48% 30.34 in 12.0 mi Variable 4.6 mph - N/A   Clear
11:56 AM 53.6 °F - 26.4 °F 35% 30.32 in 12.0 mi SW 10.4 mph 16.1 mph N/A   Clear
12:56 PM 56.3 °F - 27.1 °F 33% 30.30 in 12.0 mi West 11.5 mph 16.1 mph N/A   Clear
1:56 PM 57.4 °F - 27.9 °F 32% 30.25 in 12.0 mi WNW 6.9 mph 13.8 mph N/A   Clear
2:56 PM 58.5 °F - 28.2 °F 32% 30.22 in 12.0 mi South 8.1 mph 17.3 mph N/A   Clear
3:56 PM 58.8 °F - 27.5 °F 30% 30.18 in 12.0 mi West 8.1 mph 15.0 mph N/A   Clear
4:56 PM 59.0 °F - 29.5 °F 33% 30.17 in 12.0 mi SW 9.2 mph - N/A   Clear
5:56 PM 56.3 °F - 29.3 °F 36% 30.16 in 12.0 mi WSW 6.9 mph - N/A   Clear
6:56 PM 49.1 °F - 35.2 °F 59% 30.16 in 12.0 mi SW 2.3 mph - N/A   Clear
7:56 PM 42.8 °F 40.1 °F 36.9 °F 80% 30.16 in 12.0 mi SW 4.6 mph - N/A   Clear
8:56 PM 43.3 °F 39.9 °F 36.9 °F 78% 30.15 in 12.0 mi WSW 5.8 mph - N/A   Clear
9:56 PM 41.5 °F 39.6 °F 36.7 °F 83% 30.15 in 12.0 mi South 3.5 mph - N/A   Clear
10:56 PM 40.6 °F 38.6 °F 36.7 °F 86% 30.14 in 12.0 mi SW 3.5 mph - N/A   Clear
11:56 PM 45.5 °F 44.2 °F 37.9 °F 75% 30.13 in 12.0 mi SSW 3.5 mph - N/A   Mostly Cloudy